Change the Weather History Date:

Sunday, August 18, 2013

  Actual Average (KMBS) Record (KMBS)
Temperature  
Mean Temperature 64 °F 69 °F  
Max Temperature 81 °F 79 °F 87 °F (1996)
Min Temperature 48 °F 58 °F 43 °F (2007)
Degree Days  
Heating Degree Days 0    
Month to date heating degree days  
Since 1 June heating degree days  
Since 1 July heating degree days  
Cooling Degree Days 0    
Month to date cooling degree days  
Year to date cooling degree days  
Since 1 June cooling degree days  
Growing Degree Days 14 (Base 50)    
Moisture  
Dew Point 54 °F    
Average Humidity 71    
Maximum Humidity 99    
Minimum Humidity 35    
Precipitation  
Precipitation 0.00 in 0.11 in 0.07 in (2001)
Month to date precipitation 1.87  
Year to date precipitation 19.08  
Snow  
Snow 0.00 in - - ()
Month to date snowfall  
Since 1 June snowfall  
Since 1 July snowfall  
Snow Depth -    
Sea Level Pressure  
Sea Level Pressure 30.18 in    
Wind  
Wind Speed 1 mph (SW)    
Max Wind Speed 8 mph    
Max Gust Speed -    
Visibility 9 miles    
Events      
T = Trace of Precipitation, MM = Missing Value Source: NWS Daily Summary

Daily Weather History Graph

Daily Weather History Graph

Search for Another Location

Airport or City:

Trip Planner

Search our weather history database for the weather conditions in past years. The results will help you decide how hot, cold, wet, or windy it might be!

Date:

Astronomy

Aug. 18, 2013 Rise Set
Actual Time 6:45 AM EDT 8:35 PM EDT
Civil Twilight 6:14 AM EDT 9:06 PM EDT
Nautical Twilight 5:36 AM EDT 9:43 PM EDT
Astronomical Twilight 4:56 AM EDT 10:24 PM EDT
Moon 6:42 PM EDT (8/18) 3:50 AM EDT (8/18)
Length of Visible Light 14h 51m
Length of Day
13h 50m
Waxing Gibbous, 92% of the Moon is Illuminated
Aug 18
Waxing Gibbous
Aug 20
Full
Aug 28
Last Quarter
Sep 5
New
Sep 12
First Quarter

Hourly Weather History & Observations

Time (EDT) Temp. Heat Index Dew Point Humidity Pressure Visibility Wind Dir Wind Speed Gust Speed Precip Events Conditions
12:13 AM 55.9 °F - 54.5 °F 95% 30.20 in 10.0 mi Calm Calm - N/A   Clear
12:34 AM 55.9 °F - 54.7 °F 96% 30.20 in 10.0 mi Calm Calm - N/A   Clear
12:54 AM 56.7 °F - 55.4 °F 96% 30.20 in 10.0 mi Calm Calm - N/A   Clear
1:13 AM 55.8 °F - 54.5 °F 96% 30.20 in 10.0 mi Calm Calm - N/A   Clear
1:34 AM 55.8 °F - 54.5 °F 96% 30.20 in 10.0 mi Calm Calm - N/A   Clear
1:53 AM 55.0 °F - 54.1 °F 97% 30.20 in 10.0 mi Calm Calm - N/A   Clear
2:14 AM 54.5 °F - 53.8 °F 97% 30.20 in 10.0 mi Calm Calm - N/A   Clear
2:34 AM 54.7 °F - 54.1 °F 98% 30.20 in 10.0 mi Calm Calm - N/A   Clear
2:53 AM 54.5 °F - 54.0 °F 98% 30.20 in 10.0 mi Calm Calm - N/A   Clear
3:14 AM 52.9 °F - 52.3 °F 98% 30.20 in 7.0 mi Calm Calm - N/A   Clear
3:34 AM 52.7 °F - 52.3 °F 99% 30.20 in 10.0 mi Calm Calm - N/A   Clear
3:53 AM 52.7 °F - 52.2 °F 98% 30.20 in 10.0 mi Calm Calm - N/A   Clear
4:14 AM 51.4 °F - 51.1 °F 99% 30.21 in 5.0 mi Calm Calm - N/A   Clear
4:33 AM 50.9 °F - 50.7 °F 99% 30.21 in 7.0 mi NW 4.6 mph - N/A   Clear
4:54 AM 52.5 °F - 52.2 °F 99% 30.21 in 10.0 mi Calm Calm - N/A   Clear
5:14 AM 50.2 °F - 50.0 °F 99% 30.22 in 5.0 mi NNW 3.5 mph - N/A   Clear
5:33 AM 49.1 °F - 48.7 °F 99% 30.22 in 0.8 mi Calm Calm - N/A   Mist
5:54 AM 50.0 °F - 49.8 °F 99% 30.22 in 7.0 mi Calm Calm - N/A   Clear
6:14 AM 49.1 °F - 48.6 °F 98% 30.22 in 4.0 mi Calm Calm - N/A   Clear
6:33 AM 49.6 °F - 49.3 °F 99% 30.22 in 7.0 mi Calm Calm - N/A   Clear
6:54 AM 48.7 °F - 48.6 °F 99% 30.22 in 5.0 mi Calm Calm - N/A   Clear
7:14 AM 49.1 °F - 48.7 °F 99% 30.23 in 0.8 mi Calm Calm - N/A   Mist
7:33 AM 49.8 °F - 49.5 °F 99% 30.23 in 7.0 mi Calm Calm - N/A   Clear
7:54 AM 52.2 °F - 52.0 °F 99% 30.24 in 7.0 mi Calm Calm - N/A   Scattered Clouds
8:14 AM 54.5 °F - 54.1 °F 99% 30.24 in 10.0 mi Calm Calm - N/A   Scattered Clouds
8:33 AM 56.8 °F - 55.4 °F 95% 30.24 in 10.0 mi Calm Calm - N/A   Clear
8:54 AM 61.3 °F - 58.1 °F 89% 30.24 in 10.0 mi Calm Calm - N/A   Clear
9:13 AM 63.5 °F - 58.5 °F 84% 30.24 in 10.0 mi Calm Calm - N/A   Clear
9:34 AM 66.9 °F - 57.9 °F 73% 30.24 in 10.0 mi Calm Calm - N/A   Clear
9:54 AM 69.4 °F - 58.3 °F 68% 30.24 in 10.0 mi Calm Calm - N/A   Clear
10:13 AM 71.2 °F - 58.3 °F 64% 30.23 in 10.0 mi Calm Calm - N/A   Clear
10:34 AM 73.2 °F - 57.6 °F 58% 30.23 in 10.0 mi Calm Calm - N/A   Clear
10:54 AM 74.8 °F - 57.6 °F 55% 30.23 in 10.0 mi Calm Calm - N/A   Clear
11:13 AM 75.6 °F - 56.5 °F 51% 30.22 in 10.0 mi Calm Calm - N/A   Clear
11:34 AM 77.7 °F - 57.7 °F 50% 30.22 in 10.0 mi Calm Calm - N/A   Clear
11:54 AM 77.5 °F - 54.3 °F 44% 30.22 in 10.0 mi Calm Calm - N/A   Clear
12:13 PM 78.8 °F - 55.4 °F 44% 30.21 in 10.0 mi SSW 5.8 mph - N/A   Clear
12:34 PM 77.2 °F - 54.7 °F 46% 30.20 in 10.0 mi Calm Calm - N/A   Scattered Clouds
12:54 PM 78.8 °F - 54.1 °F 42% 30.20 in 10.0 mi Calm Calm - N/A   Mostly Cloudy
1:13 PM 78.6 °F - 54.7 °F 43% 30.20 in 10.0 mi NW 4.6 mph - N/A   Mostly Cloudy
1:34 PM 79.2 °F - 54.9 °F 43% 30.19 in 10.0 mi Calm Calm - N/A   Mostly Cloudy
1:54 PM 80.6 °F 80.4 °F 54.3 °F 40% 30.18 in 10.0 mi Calm Calm - N/A   Mostly Cloudy
2:14 PM 80.6 °F 80.3 °F 53.8 °F 39% 30.18 in 10.0 mi Calm Calm - N/A   Mostly Cloudy
2:34 PM 78.6 °F - 53.2 °F 41% 30.17 in 10.0 mi SSW 4.6 mph - N/A   Scattered Clouds
2:54 PM 80.8 °F 80.5 °F 54.3 °F 40% 30.17 in 10.0 mi South 5.8 mph - N/A   Scattered Clouds
3:14 PM 81.3 °F - 52.9 °F 37% 30.16 in 10.0 mi South 3.5 mph - N/A   Mostly Cloudy
3:34 PM 81.5 °F - 51.4 °F 35% 30.16 in 10.0 mi SW 8.1 mph - N/A   Scattered Clouds
3:54 PM 81.7 °F - 52.2 °F 36% 30.15 in 10.0 mi SW 5.8 mph - N/A   Clear
4:14 PM 81.7 °F 80.9 °F 53.2 °F 37% 30.15 in 10.0 mi Calm Calm - N/A   Clear
4:34 PM 81.9 °F - 52.0 °F 35% 30.14 in 10.0 mi SW 5.8 mph - N/A   Clear
4:54 PM 81.5 °F 80.7 °F 53.1 °F 37% 30.14 in 10.0 mi Calm Calm - N/A   Clear
5:14 PM 81.3 °F - 52.5 °F 37% 30.13 in 10.0 mi SW 8.1 mph - N/A   Clear
5:34 PM 81.3 °F - 52.9 °F 37% 30.13 in 10.0 mi Calm Calm - N/A   Clear
5:54 PM 80.6 °F - 52.3 °F 37% 30.12 in 10.0 mi SW 3.5 mph - N/A   Clear
6:14 PM 80.8 °F 80.4 °F 53.4 °F 39% 30.12 in 10.0 mi Calm Calm - N/A   Clear
6:34 PM 80.6 °F 80.3 °F 53.8 °F 39% 30.12 in 10.0 mi SW 5.8 mph - N/A   Clear
6:54 PM 80.6 °F 80.4 °F 54.1 °F 40% 30.12 in 10.0 mi SSW 5.8 mph - N/A   Clear
7:14 PM 79.3 °F - 52.0 °F 38% 30.12 in 10.0 mi SSW 3.5 mph - N/A   Clear
7:34 PM 78.6 °F - 52.9 °F 41% 30.12 in 10.0 mi SSW 3.5 mph - N/A   Clear
7:54 PM 77.2 °F - 53.6 °F 44% 30.11 in 10.0 mi South 3.5 mph - N/A   Clear
8:14 PM 70.7 °F - 57.6 °F 63% 30.11 in 10.0 mi Calm Calm - N/A   Clear
8:33 PM 67.6 °F - 57.9 °F 71% 30.11 in 10.0 mi Calm Calm - N/A   Clear
8:54 PM 66.2 °F - 58.1 °F 75% 30.11 in 10.0 mi Calm Calm - N/A   Clear
9:14 PM 63.9 °F - 56.1 °F 76% 30.11 in 10.0 mi Calm Calm - N/A   Clear
9:33 PM 62.1 °F - 56.7 °F 82% 30.12 in 10.0 mi Calm Calm - N/A   Clear
9:54 PM 61.7 °F - 55.8 °F 81% 30.12 in 10.0 mi Calm Calm - N/A   Clear
10:14 PM 60.4 °F - 55.2 °F 83% 30.12 in 10.0 mi Calm Calm - N/A   Clear
10:34 PM 61.0 °F - 56.3 °F 85% 30.11 in 10.0 mi Calm Calm - N/A   Clear
10:54 PM 60.1 °F - 57.4 °F 91% 30.11 in 10.0 mi Calm Calm - N/A   Clear
11:14 PM 58.3 °F - 56.3 °F 93% 30.11 in 10.0 mi Calm Calm - N/A   Clear
11:34 PM 58.3 °F - 55.9 °F 92% 30.11 in 10.0 mi Calm Calm - N/A   Clear
11:54 PM 57.4 °F - 55.0 °F 92% 30.11 in 10.0 mi Calm Calm - N/A   Clear